SL-12 R/B(AUX MOTOR), 37144

Orbit data source: Space-Track

SL-12 R/B(AUX MOTOR), 37144 is space debris in HEO originally from a launch on Thu, 02 Sep 2010 UTC launched from the Tyuratam Missile And Space Complex (TTMTR). Debris objects in space refer to the collection of defunct objects orbiting the Earth. Examples of debris include non-operational satellites, rocket bodies, and fragments generated from explosions, collisions, or faulty payload assembly.

Loading next visibility...
Identifier
37144, 2010-041H
Orbit
HEO
Country
Flag of CISCIS
Related business
Manufacturer
RKKE
Mission
Spacecraft
Bus & Motor
SOZ, Unknown motor
Mass
56 kg wet, 56 kg dry
Launch date (UTC)
2010-09-02 (16 years ago)
Launch vehicle
Unknown
Launch site
Tyuratam Missile And Space Complex (TTMTR)
Object type
Payload
Rocket body
Debris
Shape & HBR
Cyl, 0.6 m
Radar Cross Section
0.660 m², Medium (>0.1 m² and < 1m²)

Expand to show TLE details & history
Last TLE update: 15 hours ago

TLE from 15 hours ago
0 SL-12 R/B(AUX MOTOR)
1 37144U 10041H   26127.26441095  .00000070  00000-0  88887-4 0  9994
2 37144  64.8246 106.6845 5624873 310.3679  12.6147  4.24867934103580
Epoch: 2026-05-07T06:20Z
TLE epoch observation values (Epoch: 2026-05-07T06:20:45.106Z)
Latitude
-0.00007°
Longitude
146.37866°
Altitude
1,694.163 km
Speed
8.604 km/s
True Right ascension
07h 06m 43s
True Declination
0° 00' 00"
Sunlit
Object was in daylight at epoch
Visualization orbit readout
Latitude
Unknown
Longitude
Unknown
Altitude
Unknown
Speed
Unknown
Apparent Right ascension
Unknown
Apparent Declination
Unknown
Sunlit
N/A
Visualization observer readout
Local Sidereal Time
05:16:18
Azimuth
Unknown
Elevation
Unknown
Doppler factor
Unknown
Orbital elements
Apogee altitude
18,780.444 km
Perigee altitude
666.527 km
Semi-major axis
16,101.623 km
Eccentricity
0.56249
Inclination
64.8246°
RAAN
106.6845°
Arg. of periapsis
310.3679°
True anomaly
49.62112°
Mean anomaly
12.6147°
Eccentric anomaly
27.49202°
Mean motion
1.06228 °/min
Orbital period
338.89 mins
BSTAR
0.000088887
Loading maneuver chart data...
Computing Atmospheric mass density...
Loading historical data...
Loading historical data...
Loading historical data...
Loading historical data...
Loading historical data...
Loading historical data...
Loading historical data...

Documentation

Showing up to 5 results
|